Main page


Airports :

Gonabad, Iran

latitude: 34-22-51N, longitude: 58-38-23E, elevation: 1100 m

Current weather observation

The report was made 1 hour and 1 minutes ago, at 09:00 UTC
Wind 12 kt from the Southeast
Temperature 11°C
Humidity 87%
Pressure 1010 hPa

METAR: OIMD 180900Z AUTO 13012KT //// // ////// 11/09 Q1010

Time: 13:31 (10:01 UTC)

TAF: missing

Weather observations and forecasts of more than 4000 airports (METAR and TAF reports).

The available stations are represented by yellow and red dots on the map.

Hover mouse over dot to see the name of the station.

Then click to see weather observations and forecasts.

To change the map : click on the green buttons with a black cross to zoom in, on the green button with a dash to zoom out, or on the green arrows for adjacent maps.